TimeEST,TemperatureF,Dew PointF,Humidity,Sea Level PressureIn,VisibilityMPH,Wind Direction,Wind SpeedMPH,Gust SpeedMPH,PrecipitationIn,Events,Conditions,WindDirDegrees,DateUTC
12:54 AM,28.9,21.9,75,30.09,10.0,West,11.5,-,N/A,,Clear,280,2013-02-12 05:54:00
1:54 AM,28.0,21.0,75,30.10,10.0,WNW,8.1,-,N/A,,Partly Cloudy,290,2013-02-12 06:54:00
2:08 AM,28.4,21.2,74,30.08,10.0,West,8.1,-,N/A,,Mostly Cloudy,280,2013-02-12 07:08:00
2:54 AM,28.0,21.9,78,30.11,10.0,West,8.1,-,N/A,,Overcast,270,2013-02-12 07:54:00
3:54 AM,28.9,21.9,75,30.11,10.0,West,11.5,-,N/A,,Overcast,280,2013-02-12 08:54:00
4:54 AM,28.9,21.9,75,30.12,10.0,WNW,10.4,-,N/A,,Overcast,290,2013-02-12 09:54:00
5:54 AM,28.0,21.9,78,30.13,10.0,WNW,8.1,-,N/A,,Overcast,300,2013-02-12 10:54:00
6:54 AM,25.0,19.9,81,30.13,10.0,West,3.5,-,N/A,,Mostly Cloudy,280,2013-02-12 11:54:00
7:54 AM,25.0,21.0,85,30.13,10.0,West,3.5,-,N/A,,Overcast,280,2013-02-12 12:54:00
8:54 AM,28.0,23.0,81,30.15,10.0,West,5.8,-,N/A,,Overcast,260,2013-02-12 13:54:00
9:38 AM,28.4,21.2,74,30.12,10.0,SW,5.8,-,N/A,,Overcast,230,2013-02-12 14:38:00
9:54 AM,28.0,21.9,78,30.13,10.0,WSW,4.6,-,N/A,,Overcast,240,2013-02-12 14:54:00
10:01 AM,28.4,21.2,74,30.11,10.0,WSW,4.6,-,N/A,,Overcast,240,2013-02-12 15:01:00
10:17 AM,28.4,23.0,80,30.11,10.0,Variable,4.6,-,N/A,,Overcast,0,2013-02-12 15:17:00
10:54 AM,28.9,23.0,78,30.15,10.0,WNW,8.1,-,N/A,,Mostly Cloudy,290,2013-02-12 15:54:00
11:01 AM,28.4,23.0,80,30.12,10.0,West,6.9,-,N/A,,Overcast,270,2013-02-12 16:01:00
11:26 AM,30.2,23.0,75,30.11,10.0,West,6.9,-,N/A,,Mostly Cloudy,260,2013-02-12 16:26:00
11:51 AM,30.2,23.0,75,30.10,10.0,West,6.9,-,N/A,,Scattered Clouds,280,2013-02-12 16:51:00
11:54 AM,30.0,23.0,75,30.12,10.0,Variable,3.5,-,N/A,,Scattered Clouds,0,2013-02-12 16:54:00
12:21 PM,30.2,23.0,75,30.08,10.0,WNW,5.8,-,N/A,,Mostly Cloudy,290,2013-02-12 17:21:00
12:54 PM,30.9,24.1,76,30.08,10.0,West,4.6,-,N/A,,Overcast,260,2013-02-12 17:54:00
1:54 PM,32.0,24.1,73,30.06,10.0,WNW,9.2,-,N/A,,Overcast,290,2013-02-12 18:54:00
2:54 PM,32.0,24.1,73,30.07,10.0,West,12.7,-,N/A,,Overcast,280,2013-02-12 19:54:00
3:54 PM,32.0,25.0,75,30.07,10.0,WNW,6.9,-,N/A,,Overcast,300,2013-02-12 20:54:00
4:54 PM,30.9,24.1,76,30.05,10.0,NW,8.1,-,N/A,,Overcast,310,2013-02-12 21:54:00
5:44 PM,30.2,24.8,80,30.02,10.0,WNW,5.8,-,N/A,,Scattered Clouds,300,2013-02-12 22:44:00
5:54 PM,28.9,23.0,78,30.04,10.0,NW,6.9,-,N/A,,Clear,310,2013-02-12 22:54:00
6:54 PM,28.0,23.0,81,30.04,10.0,NW,4.6,-,N/A,,Clear,310,2013-02-12 23:54:00
7:51 PM,28.4,23.0,80,30.00,10.0,West,4.6,-,N/A,,Mostly Cloudy,270,2013-02-13 00:51:00
7:54 PM,28.9,23.0,78,30.02,10.0,West,3.5,-,N/A,,Mostly Cloudy,280,2013-02-13 00:54:00
8:23 PM,28.4,23.0,80,29.99,10.0,Calm,Calm,-,N/A,,Scattered Clouds,0,2013-02-13 01:23:00
8:54 PM,28.0,23.0,81,29.99,10.0,Calm,Calm,-,N/A,,Clear,0,2013-02-13 01:54:00
9:54 PM,26.1,21.9,84,30.00,8.0,Calm,Calm,-,N/A,,Clear,0,2013-02-13 02:54:00
10:54 PM,24.1,21.9,91,29.98,8.0,Calm,Calm,-,N/A,,Clear,0,2013-02-13 03:54:00
11:54 PM,23.0,21.0,92,29.97,7.0,Calm,Calm,-,N/A,,Clear,0,2013-02-13 04:54:00